Location: Aurora Center
(43.5271°N, 98.5894°W)
Time: 10:30:59
(UTC-05:00)

ACS3 Solar Sail - Pass Details

Date: 22 June 2024
Orbit: 992 x 1023 km, 97.4° (Epoch: 12 July)

Event Time Altitude Azimuth Distance (km) Brightness Sun altitude
Exits shadow 00:27:34 10° 224° (SW) 2,749 6.9 -21.2°
Maximum altitude 00:32:02 21° 271° (W) 2,084 6.7 -21.4°
Drops below altitude 10° 00:36:35 10° 318° (NW) 2,766 8.1 -21.6°
Sets 00:39:47 0° 335° (NNW) 3,718 9.3 -21.8°
